Location: ???????
(55.4362°N, 38.1183°E)
Time: 16:48:21
(UTC+00:00)

Cosmos 2333 Rocket - Pass Details

Date: 28 October 2021
Orbit: 837 x 865 km, 70.8° (Epoch: 04 December)

Event Time Altitude Azimuth Distance (km) Brightness Sun altitude
Rises 17:36:02 0° 231° (SW) 3,401 5.7 -31.1°
Reaches altitude 10° 17:38:32 10° 236° (WSW) 2,473 5.0 -31.4°
Maximum altitude 17:44:05 53° 313° (NW) 1,047 2.8 -32.1°
Enters shadow 17:44:39 51° 335° (NNW) 1,073 2.9 -32.2°
